Follow iAlert.com on twitter @ialertcom
Search For Active Alerts in Your Area  
  Hi Guest:  [ Sign-up / Services ] [ Login ]

Current weather by "City, St" or "zip code"  
 

Advertise Here

Current Conditions: Doylestown, Doylestown Airport, PA

Overcast


40.0 F

Last Updated on Nov 18 2018, 4:54 pm EST
Humidity: 68%
Wind Speed: NE 3.5 mph
Barometer 30.26 in
Dewpoint: 30.0 F
Visibility: 10.00 mi
Precip: --
Heat Index: NA
Wind Chill: NA
Current conditions at:

Doylestown, Doylestown Airport, PA (KDYL)

Lat: 40.33 Lon: 75.122

Local Radar Image active severe weather and emergency alerts image image weather storm and storm spotter reports image weather observation monitoring service image
Local
Radar
Active
Alerts
Storm Reports Obs
Monitoring

iAlert Weather and Emergency Alert Notification Services:


ialert severe weather and emergency alerts by text message and email ialert daily weather forecast by email and text message service ialert real-time weather-observation monitoring and alert notification service ialert storm report monitoring alert notification

Observation History for Doylestown, Doylestown Airport, PA


Time Wind
(mph)
Vis
(mi)
Weather Precip (in) Temperature (F) Relative
Humidity
Wind
Chill
(°F)
Heat
Index
(°F)
Pressure
Air Dwpt altimeter
(in)
sea level
(mb)
4:54 pm EST NE 3.5 10.00 Overcast -- 40.0 30.0 68% NA NA 30.26 1025.2
3:54 pm EST N 0.0 10.00 Overcast -- 42.0 28.9 60% NA NA 30.26 1025.4
2:54 pm EST N 0.0 10.00 Overcast -- 42.0 28.9 60% NA NA 30.27 1025.7
1:54 pm EST N 0.0 10.00 Overcast -- 42.0 28.9 60% NA NA 30.29 1026.2
12:54 pm EST N 0.0 10.00 Overcast -- 41.0 28.0 60% NA NA 30.30 1026.6
11:54 am EST N 0.0 10.00 Overcast -- 40.0 28.0 63% NA NA 30.33 1027.8
10:54 am EST N 0.0 10.00 Overcast -- 39.0 27.0 62% NA NA 30.36 1028.5
9:54 am EST N 0.0 10.00 Overcast -- 39.0 27.0 62% NA NA 30.37 1029.0
8:54 am EST N 0.0 10.00 Overcast -- 36.0 30.9 82% NA NA 30.37 1029.1
7:54 am EST N 0.0 10.00 Overcast -- 33.0 30.0 89% NA NA 30.37 1029.1
6:54 am EST N 0.0 10.00 Mostly Cloudy -- 30.0 28.0 92% NA NA 30.36 1028.6
5:54 am EST N 0.0 10.00 Fair -- 30.0 28.0 92% NA NA 30.34 1028.2
4:54 am EST N 0.0 10.00 Fair -- 31.0 28.0 89% NA NA 30.33 1027.7
3:54 am EST N 0.0 10.00 Fair -- 32.0 28.0 85% NA NA 30.32 1027.2
2:54 am EST N 0.0 10.00 Fair -- 34.0 28.0 79% NA NA 30.31 1027.1
1:54 am EST N 0.0 10.00 Fair -- 35.0 28.0 76% NA NA 30.31 1026.9
12:54 am EST N 0.0 10.00 Partly Cloudy -- 35.0 28.0 76% NA NA 30.29 1026.4
11:54 pm EST N 0.0 10.00 Fair -- 37.0 28.0 70% NA NA 30.30 1026.5
10:54 pm EST W 3.5 10.00 Fair -- 38.0 28.0 68% NA NA 30.29 1026.2
9:54 pm EST W 4.6 10.00 Partly Cloudy -- 39.0 28.9 67% 36 NA 30.28 1026.0
8:54 pm EST W 4.6 10.00 Overcast -- 41.0 28.9 62% 38 NA 30.28 1025.8
7:54 pm EST W 4.6 10.00 Overcast -- 41.0 30.0 65% 38 NA 30.27 1025.6
6:54 pm EST NW 3.5 10.00 Overcast -- 42.0 28.9 60% NA NA 30.26 1025.2
5:54 pm EST NW 5.8 10.00 Overcast -- 42.0 28.9 60% 38 NA 30.24 1024.5

Regional Weather Observation


Allentown, Lehigh Valley International Airport, PA (KABE)

Overcast
40.0 F

Allentown Queen City Municipal Airport, PA (KXLL)

Overcast
39.0 F

Doylestown, Doylestown Airport, PA (KDYL)

Overcast
40.0 F

Pottstown, Pottstown Limerick Airport, PA (KPTW)

Overcast
42.0 F

Philadelphia, Northeast Philadelphia Airport, PA (KPNE)

A Few Clouds
47.0 F

Reading, Reading Regional Airport, PA (KRDG)

Overcast
43.0 F

Advertise Here